Station Historical Data
Daily Summary for January 7, 2017 Units:  Metric    English   Both
« Previous Day
Next Day »
Daily Weekly Monthly Yearly Custom
  High: Low: Average:
Temperature: -7.7 °C -15.3 °C -11.4 °C
Dew Point: -10.7 °C -18.2 °C -15.3 °C
Humidity: 85% 64% 73%
Wind Speed: 24.1km/h 0km/h 5.1km/h
Wind Gust: 32.2km/h - -
Wind- - WSW
Pressure: 1029.7 hPa 1026 hPa -
Precipitation: 0 mm    
Historical Graphs
 
 
Tabular Data for January 7, 2017
Time Temperature Dew Point Pressure Wind Wind Speed Wind Gust Humidity Rainfall Rate (Hourly)
00:04 -12.4 °C -16.3 °C 1027.3 hPa Calm     73% 0 mm
00:09 -12.3 °C -16.2 °C 1027.7 hPa Calm     73% 0 mm
00:14 -12.3 °C -16.3 °C 1027.7 hPa Calm     72% 0 mm
00:19 -12.3 °C -16.3 °C 1027.7 hPa Calm     72% 0 mm
00:24 -12.3 °C -16.3 °C 1028 hPa Calm     72% 0 mm
00:29 -12.4 °C -16.6 °C 1028 hPa Calm     71% 0 mm
00:34 -12.4 °C -16.6 °C 1028 hPa Calm     71% 0 mm
00:39 -12.4 °C -16.6 °C 1028 hPa Calm     71% 0 mm
00:44 -12.6 °C -16.7 °C 1027.7 hPa Calm     71% 0 mm
00:49 -12.6 °C -16.8 °C 1027.7 hPa Calm     71% 0 mm
00:54 -12.6 °C -16.6 °C 1027.7 hPa Calm     72% 0 mm
00:59 -12.7 °C -16.7 °C 1027.7 hPa Calm     72% 0 mm
01:04 -12.7 °C -16.7 °C 1027.7 hPa SW 1.6 km/h 6.4 km/h 72% 0 mm
01:09 -12.7 °C -16.9 °C 1027.7 hPa SW 1.6 km/h 3.2 km/h 71% 0 mm
01:14 -12.7 °C -16.9 °C 1027.7 hPa SSW 1.6 km/h 4.8 km/h 71% 0 mm
01:19 -12.8 °C -17.1 °C 1027.7 hPa SSW 3.2 km/h 6.4 km/h 70% 0 mm
01:24 -12.7 °C -17.1 °C 1027.7 hPa SW 1.6 km/h 6.4 km/h 70% 0 mm
01:29 -12.7 °C -17.2 °C 1027.7 hPa WSW 1.6 km/h 4.8 km/h 69% 0 mm
01:34 -12.7 °C -17.2 °C 1028 hPa Calm   4.8 km/h 69% 0 mm
01:39 -12.7 °C -17.2 °C 1028 hPa Calm     69% 0 mm
01:44 -12.7 °C -17.2 °C 1027.7 hPa Calm     69% 0 mm
01:49 -12.8 °C -17.3 °C 1028 hPa Calm     69% 0 mm
01:54 -12.8 °C -17.3 °C 1028 hPa Calm     69% 0 mm
01:59 -12.9 °C -17.2 °C 1028 hPa Calm   3.2 km/h 70% 0 mm
02:04 -12.9 °C -17.1 °C 1028 hPa Calm   4.8 km/h 71% 0 mm
02:09 -13 °C -17.2 °C 1028.3 hPa Calm     71% 0 mm
02:14 -13 °C -17.2 °C 1028.3 hPa Calm     71% 0 mm
02:19 -13.1 °C -17.2 °C 1028.3 hPa Calm     71% 0 mm
02:24 -13.1 °C -17.2 °C 1028.3 hPa Calm     71% 0 mm
02:29 -13.1 °C -17.4 °C 1028.3 hPa Calm     70% 0 mm
02:34 -13.2 °C -17.5 °C 1028.7 hPa Calm     70% 0 mm
02:39 -13.3 °C -17.6 °C 1028.7 hPa Calm     70% 0 mm
02:44 -13.3 °C -17.7 °C 1028.7 hPa Calm     70% 0 mm
02:49 -13.5 °C -17.7 °C 1028.7 hPa Calm     71% 0 mm
02:54 -13.6 °C -17.7 °C 1028.7 hPa Calm     71% 0 mm
02:59 -13.7 °C -17.7 °C 1028.7 hPa Calm     72% 0 mm
03:04 -13.8 °C -17.6 °C 1028.7 hPa Calm     73% 0 mm
03:09 -13.9 °C -17.7 °C 1028.7 hPa Calm     73% 0 mm
03:14 -14.1 °C -17.7 °C 1028.7 hPa Calm     74% 0 mm
03:19 -14.1 °C -17.5 °C 1028.3 hPa Calm     75% 0 mm
03:24 -14.2 °C -17.6 °C 1028.3 hPa Calm     75% 0 mm
03:29 -14.2 °C -17.5 °C 1028.3 hPa Calm     76% 0 mm
03:34 -14.2 °C -17.6 °C 1028.3 hPa Calm     76% 0 mm
03:39 -14.3 °C -17.6 °C 1028.3 hPa Calm     76% 0 mm
03:44 -14.3 °C -17.6 °C 1028.3 hPa Calm     76% 0 mm
03:49 -14.3 °C -17.6 °C 1028.3 hPa Calm     76% 0 mm
03:54 -14.4 °C -17.7 °C 1028.3 hPa Calm     76% 0 mm
03:59 -14.5 °C -17.8 °C 1028.3 hPa Calm     76% 0 mm
04:04 -14.6 °C -17.9 °C 1028.3 hPa Calm     76% 0 mm
04:09 -14.7 °C -18 °C 1028.3 hPa Calm     76% 0 mm
04:14 -14.8 °C -17.9 °C 1028.3 hPa Calm     77% 0 mm
04:19 -14.8 °C -17.9 °C 1028.3 hPa Calm     77% 0 mm
04:24 -14.9 °C -18.1 °C 1028.3 hPa Calm     77% 0 mm
04:29 -15.1 °C -18.2 °C 1028.3 hPa Calm     77% 0 mm
04:34 -15.1 °C -18.2 °C 1028.3 hPa Calm     77% 0 mm
04:39 -15.2 °C -18.2 °C 1028.3 hPa Calm     78% 0 mm
04:44 -15.3 °C -18.2 °C 1028.3 hPa Calm     78% 0 mm
04:49 -15.3 °C -18.2 °C 1028.7 hPa Calm     79% 0 mm
04:54 -15.3 °C -18.2 °C 1028.7 hPa Calm     79% 0 mm
04:59 -15.3 °C -18 °C 1028.7 hPa Calm     80% 0 mm
05:04 -15.3 °C -17.9 °C 1028.7 hPa Calm     80% 0 mm
05:09 -15.2 °C -17.7 °C 1028.7 hPa Calm     81% 0 mm
05:14 -15.1 °C -17.7 °C 1028.7 hPa Calm     81% 0 mm
05:19 -15.1 °C -17.6 °C 1028.7 hPa Calm     81% 0 mm
05:24 -15 °C -17.6 °C 1028.7 hPa Calm     81% 0 mm
05:29 -14.9 °C -17.5 °C 1028.7 hPa Calm     81% 0 mm
05:34 -14.8 °C -17.4 °C 1028.7 hPa ESE 1.6 km/h 4.8 km/h 81% 0 mm
05:39 -14.8 °C -17.2 °C 1028.7 hPa Calm   4.8 km/h 82% 0 mm
05:44 -14.7 °C -17.1 °C 1028.7 hPa ESE 1.6 km/h 3.2 km/h 82% 0 mm
05:49 -14.7 °C -17.1 °C 1028.7 hPa ESE 3.2 km/h 4.8 km/h 82% 0 mm
05:54 -14.6 °C -17 °C 1028.7 hPa SSE 1.6 km/h 4.8 km/h 82% 0 mm
05:59 -14.6 °C -16.8 °C 1028.7 hPa SSE 1.6 km/h 6.4 km/h 83% 0 mm
06:04 -14.5 °C -16.6 °C 1028.7 hPa SSW 3.2 km/h 4.8 km/h 84% 0 mm
06:09 -14.4 °C -16.5 °C 1029 hPa Calm   4.8 km/h 84% 0 mm
06:14 -14.3 °C -16.4 °C 1029 hPa SSW 1.6 km/h 4.8 km/h 84% 0 mm
06:19 -14.3 °C -16.4 °C 1029 hPa South 1.6 km/h 3.2 km/h 84% 0 mm
06:24 -14.2 °C -16.3 °C 1029 hPa Calm   4.8 km/h 84% 0 mm
06:29 -14.2 °C -16.3 °C 1028.7 hPa Calm   4.8 km/h 84% 0 mm
06:34 -14.1 °C -16.1 °C 1029 hPa Calm   3.2 km/h 85% 0 mm
06:39 -14.1 °C -16.1 °C 1028.7 hPa Calm   1.6 km/h 85% 0 mm
06:44 -14.1 °C -16.1 °C 1029 hPa Calm   1.6 km/h 85% 0 mm
06:49 -14.1 °C -16.2 °C 1029 hPa Calm     84% 0 mm
06:54 -14 °C -16.1 °C 1029 hPa Calm     84% 0 mm
06:59 -13.9 °C -15.9 °C 1029 hPa Calm     85% 0 mm
07:04 -13.9 °C -15.9 °C 1029 hPa Calm   4.8 km/h 85% 0 mm
07:09 -13.9 °C -15.9 °C 1029 hPa SE 1.6 km/h 4.8 km/h 85% 0 mm
07:14 -13.8 °C -15.8 °C 1029 hPa SE 4.8 km/h 4.8 km/h 85% 0 mm
07:19 -13.8 °C -15.8 °C 1029 hPa SE 1.6 km/h 4.8 km/h 85% 0 mm
07:24 -13.7 °C -15.7 °C 1029 hPa SE 3.2 km/h 4.8 km/h 85% 0 mm
07:29 -13.7 °C -15.7 °C 1029 hPa Calm   3.2 km/h 85% 0 mm
07:34 -13.7 °C -15.7 °C 1029.3 hPa Calm   3.2 km/h 85% 0 mm
07:39 -13.7 °C -15.8 °C 1029.3 hPa Calm   1.6 km/h 84% 0 mm
07:44 -13.6 °C -15.7 °C 1029.3 hPa Calm     84% 0 mm
07:49 -13.6 °C -15.7 °C 1029.3 hPa Calm     84% 0 mm
07:54 -13.7 °C -15.8 °C 1029.3 hPa SE 1.6 km/h 4.8 km/h 84% 0 mm
07:59 -13.6 °C -15.7 °C 1029.3 hPa SE 3.2 km/h 4.8 km/h 84% 0 mm
08:04 -13.7 °C -15.8 °C 1029.3 hPa Calm   3.2 km/h 84% 0 mm
08:09 -13.7 °C -15.8 °C 1029.3 hPa Calm     84% 0 mm
08:14 -13.6 °C -15.7 °C 1029.3 hPa Calm     84% 0 mm
08:19 -13.6 °C -15.7 °C 1029.3 hPa Calm     84% 0 mm
08:24 -13.5 °C -15.6 °C 1029.3 hPa SE 1.6 km/h 3.2 km/h 84% 0 mm
08:29 -13.4 °C -15.6 °C 1029.7 hPa Calm   4.8 km/h 84% 0 mm
08:34 -13.3 °C -15.4 °C 1029.7 hPa SE 1.6 km/h 4.8 km/h 84% 0 mm
08:39 -13.3 °C -15.6 °C 1029.7 hPa SE 1.6 km/h 4.8 km/h 83% 0 mm
08:44 -13.3 °C -15.6 °C 1029.7 hPa SE 1.6 km/h 4.8 km/h 83% 0 mm
08:49 -13.2 °C -15.5 °C 1029.7 hPa SE 1.6 km/h 4.8 km/h 83% 0 mm
08:54 -13.2 °C -15.7 °C 1029.3 hPa South 4.8 km/h 6.4 km/h 82% 0 mm
08:59 -13.2 °C -15.7 °C 1029.3 hPa SSE 3.2 km/h 6.4 km/h 82% 0 mm
09:04 -13.2 °C -15.6 °C 1029.3 hPa SSE 3.2 km/h 6.4 km/h 82% 0 mm
09:09 -13.2 °C -15.7 °C 1029.3 hPa SSE 1.6 km/h 6.4 km/h 81% 0 mm
09:14 -13.2 °C -15.7 °C 1029.3 hPa SSE 1.6 km/h 4.8 km/h 81% 0 mm
09:19 -13.1 °C -15.6 °C 1029.7 hPa ESE 3.2 km/h 4.8 km/h 81% 0 mm
09:24 -13 °C -15.6 °C 1029.7 hPa Calm   6.4 km/h 81% 0 mm
09:29 -12.9 °C -15.5 °C 1029.7 hPa South 3.2 km/h 4.8 km/h 81% 0 mm
09:34 -12.9 °C -15.4 °C 1029.7 hPa South 3.2 km/h 8 km/h 81% 0 mm
09:39 -12.8 °C -15.4 °C 1029.7 hPa South 3.2 km/h 8 km/h 81% 0 mm
09:44 -12.8 °C -15.4 °C 1029.7 hPa South 3.2 km/h 8 km/h 81% 0 mm
09:49 -12.7 °C -15.3 °C 1029.7 hPa Calm   3.2 km/h 81% 0 mm
09:54 -12.4 °C -15.1 °C 1029.7 hPa Calm   4.8 km/h 81% 0 mm
09:59 -12.2 °C -14.9 °C 1029.7 hPa South 1.6 km/h 3.2 km/h 80% 0 mm
10:04 -11.9 °C -14.7 °C 1029.7 hPa Calm   3.2 km/h 80% 0 mm
10:09 -11.8 °C -14.6 °C 1029.7 hPa South 1.6 km/h 3.2 km/h 80% 0 mm
10:14 -11.4 °C -14.2 °C 1029.3 hPa Calm     80% 0 mm
10:19 -11 °C -13.9 °C 1029.7 hPa Calm     79% 0 mm
10:24 -10.6 °C -13.7 °C 1029.7 hPa Calm     78% 0 mm
10:29 -10.2 °C -13.7 °C 1029.7 hPa SW 1.6 km/h 6.4 km/h 76% 0 mm
10:34 -10.1 °C -13.7 °C 1029.7 hPa SW 3.2 km/h 6.4 km/h 75% 0 mm
10:39 -9.9 °C -14 °C 1029.7 hPa West 6.4 km/h 6.4 km/h 72% 0 mm
10:44 -9.4 °C -13.5 °C 1029.7 hPa WSW 3.2 km/h 6.4 km/h 72% 0 mm
10:49 -9.3 °C -13.6 °C 1029.7 hPa SW 3.2 km/h 6.4 km/h 71% 0 mm
10:54 -9.3 °C -13.7 °C 1029.7 hPa SW 1.6 km/h 6.4 km/h 70% 0 mm
10:59 -9.2 °C -13.6 °C 1029.3 hPa South 4.8 km/h 6.4 km/h 70% 0 mm
11:04 -8.9 °C -13.6 °C 1029.3 hPa SSW 3.2 km/h 9.7 km/h 69% 0 mm
11:09 -9.1 °C -13.7 °C 1029.3 hPa South 3.2 km/h 8 km/h 69% 0 mm
11:14 -8.9 °C -13.6 °C 1029.3 hPa SW 4.8 km/h 9.7 km/h 69% 0 mm
11:19 -8.8 °C -13.6 °C 1029.3 hPa SSW 4.8 km/h 9.7 km/h 68% 0.25 mm
11:24 -8.7 °C -13.3 °C 1029 hPa South 8 km/h 11.3 km/h 69% 0.25 mm
11:29 -8.7 °C -13.5 °C 1029 hPa SSW 6.4 km/h 9.7 km/h 68% 0.25 mm
11:34 -8.4 °C -13.1 °C 1029 hPa SW 4.8 km/h 9.7 km/h 69% 0.25 mm
11:39 -8.3 °C -13.4 °C 1029 hPa SW 4.8 km/h 9.7 km/h 67% 0.25 mm
11:44 -8.3 °C -13.2 °C 1028.7 hPa WNW 3.2 km/h 8 km/h 68% 0.25 mm
11:49 -8.3 °C -13.4 °C 1028.7 hPa SW 4.8 km/h 12.9 km/h 67% 0.25 mm
11:54 -8.3 °C -12.9 °C 1028.7 hPa South 8 km/h 9.7 km/h 69% 0.25 mm
11:59 -8.2 °C -13.1 °C 1028.7 hPa SW 6.4 km/h 11.3 km/h 68% 0.25 mm
12:04 -8.1 °C -12.9 °C 1028.3 hPa SW 6.4 km/h 11.3 km/h 68% 0.25 mm
12:09 -8 °C -12.9 °C 1028.3 hPa SW 4.8 km/h 9.7 km/h 68% 0.25 mm
12:14 -8.1 °C -13.3 °C 1028 hPa SW 4.8 km/h 9.7 km/h 66% 0.25 mm
12:19 -8.1 °C -13.1 °C 1028 hPa SW 6.4 km/h 12.9 km/h 67% 0 mm
12:24 -7.9 °C -12.8 °C 1028 hPa SSW 11.3 km/h 11.3 km/h 68% 0 mm
12:29 -8 °C -12.9 °C 1028 hPa SW 8 km/h 12.9 km/h 68% 0 mm
12:34 -8.1 °C -12.9 °C 1028 hPa West 9.7 km/h 11.3 km/h 68% 0 mm
12:39 -8 °C -12.9 °C 1027.7 hPa WSW 6.4 km/h 11.3 km/h 68% 0 mm
12:44 -7.8 °C -12.5 °C 1027.7 hPa SSW 4.8 km/h 11.3 km/h 69% 0 mm
12:49 -7.7 °C -12.4 °C 1027.7 hPa SW 9.7 km/h 12.9 km/h 69% 0 mm
12:54 -7.7 °C -12.4 °C 1027.7 hPa SW 8 km/h 11.3 km/h 69% 0 mm
12:59 -7.8 °C -12.6 °C 1027.7 hPa SW 6.4 km/h 17.7 km/h 69% 0 mm
13:04 -7.9 °C -12.7 °C 1027.3 hPa SW 8 km/h 17.7 km/h 69% 0 mm
13:09 -7.9 °C -12.7 °C 1027.3 hPa SW 6.4 km/h 16.1 km/h 69% 0 mm
13:14 -8.2 °C -12.3 °C 1027.3 hPa SW 4.8 km/h 11.3 km/h 72% 0 mm
13:19 -8 °C -12.2 °C 1027.3 hPa SW 4.8 km/h 14.5 km/h 72% 0 mm
13:24 -8.2 °C -12.4 °C 1027 hPa SW 6.4 km/h 11.3 km/h 72% 0 mm
13:29 -8.4 °C -12.2 °C 1027 hPa West 3.2 km/h 9.7 km/h 74% 0 mm
13:34 -8.3 °C -11.8 °C 1027 hPa SW 4.8 km/h 9.7 km/h 76% 0 mm
13:39 -8.4 °C -11.7 °C 1027 hPa SSW 4.8 km/h 9.7 km/h 77% 0 mm
13:44 -8.5 °C -11.5 °C 1027 hPa SSW 6.4 km/h 9.7 km/h 79% 0 mm
13:49 -8.7 °C -11.5 °C 1027 hPa SSW 6.4 km/h 9.7 km/h 80% 0 mm
13:54 -8.6 °C -11.1 °C 1027 hPa SW 4.8 km/h 9.7 km/h 82% 0 mm
13:59 -8.7 °C -11.2 °C 1027 hPa WSW 1.6 km/h 6.4 km/h 82% 0 mm
14:04 -8.6 °C -11 °C 1027 hPa WSW 3.2 km/h 8 km/h 83% 0 mm
14:09 -8.4 °C -10.7 °C 1027 hPa WSW 3.2 km/h 8 km/h 84% 0 mm
14:14 -8.6 °C -11.2 °C 1027 hPa West 3.2 km/h 9.7 km/h 81% 0 mm
14:19 -8.6 °C -11.3 °C 1027 hPa West 4.8 km/h 9.7 km/h 81% 0 mm
14:24 -8.6 °C -11.3 °C 1027 hPa West 4.8 km/h 11.3 km/h 81% 0 mm
14:29 -8.6 °C -11.1 °C 1027 hPa WSW 4.8 km/h 9.7 km/h 82% 0 mm
14:34 -8.6 °C -11.1 °C 1027 hPa WSW 4.8 km/h 6.4 km/h 82% 0 mm
14:39 -8.5 °C -10.9 °C 1026.6 hPa WSW 4.8 km/h 8 km/h 83% 0 mm
14:44 -8.4 °C -10.7 °C 1026.6 hPa WSW 4.8 km/h 8 km/h 84% 0 mm
14:49 -8.5 °C -10.9 °C 1026.6 hPa WSW 3.2 km/h 6.4 km/h 83% 0 mm
14:54 -8.5 °C -10.9 °C 1027 hPa SW 1.6 km/h 8 km/h 83% 0 mm
14:59 -8.5 °C -11 °C 1026.6 hPa SSW 3.2 km/h 4.8 km/h 82% 0 mm
15:04 -8.4 °C -10.9 °C 1027 hPa West 3.2 km/h 6.4 km/h 82% 0 mm
15:09 -8.3 °C -10.8 °C 1026.6 hPa WSW 4.8 km/h 12.9 km/h 82% 0 mm
15:14 -8.1 °C -11.6 °C 1027 hPa WSW 6.4 km/h 17.7 km/h 76% 0 mm
15:19 -8.1 °C -12.1 °C 1027 hPa SW 6.4 km/h 19.3 km/h 73% 0 mm
15:24 -8.1 °C -12.3 °C 1027 hPa West 12.9 km/h 22.5 km/h 72% 0 mm
15:29 -8.2 °C -12.7 °C 1026.6 hPa WNW 17.7 km/h 22.5 km/h 70% 0 mm
15:34 -8.3 °C -12.8 °C 1026.6 hPa West 4.8 km/h 20.9 km/h 70% 0 mm
15:39 -8.3 °C -12.7 °C 1026.6 hPa West 4.8 km/h 16.1 km/h 71% 0 mm
15:44 -8.4 °C -12.6 °C 1026.6 hPa WNW 12.9 km/h 25.7 km/h 72% 0 mm
15:49 -8.6 °C -12.6 °C 1026.6 hPa WNW 11.3 km/h 25.7 km/h 73% 0 mm
15:54 -8.7 °C -12.4 °C 1026.6 hPa WNW 11.3 km/h 24.1 km/h 74% 0 mm
15:59 -8.7 °C -12.5 °C 1027 hPa West 3.2 km/h 16.1 km/h 74% 0 mm
16:04 -8.7 °C -13.1 °C 1027 hPa West 17.7 km/h 25.7 km/h 71% 0 mm
16:09 -8.8 °C -13.3 °C 1027 hPa West 12.9 km/h 22.5 km/h 70% 0 mm
16:14 -8.8 °C -13.5 °C 1027 hPa West 11.3 km/h 22.5 km/h 69% 0 mm
16:19 -8.9 °C -13.4 °C 1027 hPa West 11.3 km/h 20.9 km/h 70% 0 mm
16:24 -9.1 °C -13 °C 1027 hPa West 12.9 km/h 20.9 km/h 73% 0 mm
16:29 -9.2 °C -13.3 °C 1027 hPa WNW 8 km/h 22.5 km/h 72% 0 mm
16:34 -9.3 °C -13.4 °C 1027 hPa West 6.4 km/h 17.7 km/h 72% 0 mm
16:39 -9.3 °C -13.6 °C 1027 hPa WNW 8 km/h 14.5 km/h 71% 0 mm
16:44 -9.3 °C -13.8 °C 1027 hPa NW 9.7 km/h 19.3 km/h 70% 0 mm
16:49 -9.4 °C -13.9 °C 1027 hPa WNW 9.7 km/h 19.3 km/h 70% 0 mm
16:54 -9.4 °C -13.9 °C 1027 hPa West 9.7 km/h 16.1 km/h 70% 0 mm
16:59 -9.5 °C -14.1 °C 1027 hPa West 9.7 km/h 20.9 km/h 69% 0 mm
17:04 -9.7 °C -14.7 °C 1027 hPa West 8 km/h 22.5 km/h 67% 0 mm
17:09 -9.8 °C -14.6 °C 1027 hPa WNW 6.4 km/h 20.9 km/h 68% 0 mm
17:14 -9.8 °C -14.6 °C 1027 hPa West 14.5 km/h 17.7 km/h 68% 0 mm
17:19 -9.8 °C -14.8 °C 1027 hPa WNW 11.3 km/h 20.9 km/h 67% 0 mm
17:24 -9.9 °C -15.1 °C 1027 hPa WNW 11.3 km/h 20.9 km/h 66% 0 mm
17:29 -10.1 °C -15.3 °C 1027 hPa West 11.3 km/h 20.9 km/h 66% 0 mm
17:34 -10.2 °C -15.4 °C 1027 hPa West 12.9 km/h 20.9 km/h 66% 0 mm
17:39 -10.3 °C -15.4 °C 1027 hPa West 16.1 km/h 19.3 km/h 66% 0 mm
17:44 -10.3 °C -15.6 °C 1027 hPa NW 9.7 km/h 22.5 km/h 65% 0 mm
17:49 -10.3 °C -15.5 °C 1026.6 hPa WNW 11.3 km/h 19.3 km/h 66% 0 mm
17:54 -10.4 °C -15.5 °C 1027 hPa WNW 9.7 km/h 22.5 km/h 66% 0 mm
17:59 -10.4 °C -15.6 °C 1026.6 hPa WNW 9.7 km/h 22.5 km/h 66% 0 mm
18:04 -10.5 °C -15.6 °C 1026.6 hPa WNW 9.7 km/h 19.3 km/h 66% 0 mm
18:09 -10.5 °C -15.4 °C 1026.6 hPa North 4.8 km/h 20.9 km/h 67% 0 mm
18:14 -10.6 °C -15.3 °C 1026.6 hPa WNW 8 km/h 16.1 km/h 68% 0 mm
18:19 -10.4 °C -15.2 °C 1027 hPa WNW 14.5 km/h 17.7 km/h 68% 0 mm
18:24 -10.3 °C -15.1 °C 1026.6 hPa WNW 8 km/h 17.7 km/h 68% 0 mm
18:29 -10.2 °C -15 °C 1027 hPa WNW 9.7 km/h 22.5 km/h 68% 0 mm
18:34 -10.2 °C -14.9 °C 1027 hPa WNW 9.7 km/h 17.7 km/h 68% 0 mm
18:39 -10.2 °C -15.1 °C 1027 hPa WNW 9.7 km/h 19.3 km/h 67% 0 mm
18:44 -10.2 °C -15.4 °C 1027 hPa NW 9.7 km/h 19.3 km/h 66% 0 mm
18:49 -10.3 °C -15.4 °C 1027 hPa WNW 9.7 km/h 20.9 km/h 66% 0 mm
18:54 -10.3 °C -15.7 °C 1027 hPa NW 4.8 km/h 22.5 km/h 65% 0 mm
18:59 -10.4 °C -15.8 °C 1026.6 hPa NW 9.7 km/h 25.7 km/h 65% 0 mm
19:04 -10.5 °C -15.8 °C 1026.6 hPa NW 11.3 km/h 25.7 km/h 65% 0 mm
19:09 -10.5 °C -15.6 °C 1027 hPa WNW 6.4 km/h 16.1 km/h 66% 0 mm
19:14 -10.4 °C -15.6 °C 1027 hPa WNW 11.3 km/h 24.1 km/h 66% 0 mm
19:19 -10.4 °C -15.6 °C 1027 hPa WNW 9.7 km/h 24.1 km/h 66% 0 mm
19:24 -10.4 °C -15.3 °C 1027 hPa West 16.1 km/h 20.9 km/h 67% 0 mm
19:29 -10.4 °C -15.4 °C 1027 hPa WNW 9.7 km/h 19.3 km/h 67% 0 mm
19:34 -10.5 °C -15.3 °C 1027 hPa WNW 11.3 km/h 24.1 km/h 68% 0 mm
19:39 -10.5 °C -15.3 °C 1027 hPa WNW 11.3 km/h 24.1 km/h 68% 0 mm
19:44 -10.6 °C -15.4 °C 1027 hPa WNW 11.3 km/h 30.6 km/h 68% 0 mm
19:49 -10.7 °C -15.4 °C 1027 hPa WNW 11.3 km/h 30.6 km/h 68% 0 mm
19:54 -10.7 °C -15.5 °C 1027 hPa WNW 12.9 km/h 20.9 km/h 68% 0 mm
19:59 -10.7 °C -15.3 °C 1027 hPa WNW 9.7 km/h 20.9 km/h 69% 0 mm
20:04 -10.7 °C -15.1 °C 1027.3 hPa WNW 9.7 km/h 17.7 km/h 70% 0 mm
20:09 -10.7 °C -15.1 °C 1027.3 hPa WSW 11.3 km/h 20.9 km/h 70% 0 mm
20:14 -10.7 °C -15.1 °C 1027 hPa WNW 12.9 km/h 16.1 km/h 70% 0 mm
20:19 -10.8 °C -15.2 °C 1027 hPa WNW 17.7 km/h 22.5 km/h 70% 0 mm
20:24 -10.7 °C -15.1 °C 1027 hPa WNW 22.5 km/h 25.7 km/h 70% 0 mm
20:29 -10.7 °C -15.1 °C 1027.3 hPa SW 12.9 km/h 30.6 km/h 70% 0 mm
20:34 -10.7 °C -14.9 °C 1027.3 hPa West 14.5 km/h 24.1 km/h 71% 0 mm
20:39 -10.7 °C -14.9 °C 1027.3 hPa WNW 12.9 km/h 24.1 km/h 71% 0 mm
20:44 -10.8 °C -15.2 °C 1027 hPa WNW 9.7 km/h 20.9 km/h 70% 0 mm
20:49 -11.1 °C -15.8 °C 1027.3 hPa WNW 8 km/h 17.7 km/h 68% 0 mm
20:54 -11.2 °C -15.7 °C 1027.3 hPa WNW 8 km/h 17.7 km/h 69% 0 mm
20:59 -11.3 °C -15.8 °C 1027.3 hPa West 8 km/h 14.5 km/h 69% 0 mm
21:04 -11.3 °C -16.6 °C 1027.3 hPa West 9.7 km/h 24.1 km/h 65% 0 mm
21:09 -11.3 °C -16.7 °C 1027.3 hPa WNW 12.9 km/h 22.5 km/h 64% 0 mm
21:14 -11.3 °C -16.8 °C 1027.3 hPa WNW 12.9 km/h 25.7 km/h 64% 0 mm
21:19 -11.5 °C -16.8 °C 1027.3 hPa WNW 9.7 km/h 19.3 km/h 65% 0 mm
21:24 -11.5 °C -16.8 °C 1027.3 hPa West 6.4 km/h 19.3 km/h 65% 0 mm
21:29 -11.6 °C -17 °C 1027 hPa West 3.2 km/h 22.5 km/h 64% 0 mm
21:34 -11.4 °C -16.9 °C 1027 hPa WNW 16.1 km/h 20.9 km/h 64% 0 mm
21:39 -11.3 °C -16.8 °C 1027 hPa West 11.3 km/h 19.3 km/h 64% 0 mm
21:44 -11.2 °C -16.7 °C 1027 hPa West 11.3 km/h 25.7 km/h 64% 0 mm
21:49 -11.2 °C -16.4 °C 1027 hPa West 11.3 km/h 25.7 km/h 65% 0 mm
21:54 -11.1 °C -16.3 °C 1027 hPa West 14.5 km/h 25.7 km/h 65% 0 mm
21:59 -10.9 °C -16.2 °C 1027 hPa West 16.1 km/h 29 km/h 65% 0 mm
22:04 -10.9 °C -16.2 °C 1027 hPa West 14.5 km/h 32.2 km/h 65% 0 mm
22:09 -10.9 °C -16.2 °C 1027 hPa West 4.8 km/h 20.9 km/h 65% 0 mm
22:14 -10.9 °C -16.1 °C 1027 hPa West 9.7 km/h 17.7 km/h 66% 0 mm
22:19 -11 °C -16.1 °C 1027 hPa West 9.7 km/h 24.1 km/h 66% 0 mm
22:24 -10.9 °C -16.1 °C 1027 hPa WNW 11.3 km/h 20.9 km/h 66% 0 mm
22:29 -10.9 °C -16.1 °C 1027 hPa WSW 24.1 km/h 24.1 km/h 66% 0 mm
22:34 -10.9 °C -16.1 °C 1027 hPa West 11.3 km/h 29 km/h 66% 0 mm
22:39 -11 °C -16.1 °C 1026.6 hPa West 4.8 km/h 22.5 km/h 66% 0 mm
22:44 -11.1 °C -16.2 °C 1026.6 hPa SSW 3.2 km/h 20.9 km/h 66% 0 mm
22:49 -11.1 °C -16.2 °C 1026.6 hPa West 9.7 km/h 24.1 km/h 66% 0 mm
22:54 -11.1 °C -16.2 °C 1026.3 hPa West 9.7 km/h 24.1 km/h 66% 0 mm
22:59 -11.1 °C -16.4 °C 1026.3 hPa West 11.3 km/h 20.9 km/h 65% 0 mm
23:04 -11.2 °C -16.3 °C 1026.3 hPa West 8 km/h 22.5 km/h 66% 0 mm
23:09 -11.1 °C -16.3 °C 1026.3 hPa WNW 12.9 km/h 20.9 km/h 65% 0 mm
23:14 -11.1 °C -16.3 °C 1026.3 hPa West 11.3 km/h 22.5 km/h 65% 0 mm
23:19 -11.1 °C -16.2 °C 1026.3 hPa West 4.8 km/h 20.9 km/h 66% 0 mm
23:24 -11.1 °C -16.2 °C 1026.3 hPa SW 11.3 km/h 17.7 km/h 66% 0 mm
23:29 -11.1 °C -16.2 °C 1026.3 hPa West 8 km/h 17.7 km/h 66% 0 mm
23:34 -11.2 °C -16.3 °C 1026.3 hPa West 9.7 km/h 19.3 km/h 66% 0 mm
23:39 -11.2 °C -16.3 °C 1026.3 hPa WSW 11.3 km/h 14.5 km/h 66% 0 mm
23:44 -11.2 °C -16.2 °C 1026.3 hPa WSW 6.4 km/h 22.5 km/h 67% 0 mm
23:49 -11.3 °C -16.2 °C 1026.3 hPa West 8 km/h 24.1 km/h 67% 0 mm
23:54 -11.3 °C -16.1 °C 1026.3 hPa West 6.4 km/h 16.1 km/h 68% 0 mm
23:59 -11.3 °C -16 °C 1026 hPa West 4.8 km/h 22.5 km/h 68% 0 mm
Buffalo, New York, USA
Compliments of Weather Underground - 2.5 mb